[Date Prev][Date Next][Thread Prev][Thread Next] - [Date Index][Thread Index][Author Index]
2 Line ISS Keps 10-29
- Subject: [sarex] 2 Line ISS Keps 10-29
- From: "Dave Larsen Ph.D." <doc@xxxxxxxxxxx>
- Date: Tue, 29 Oct 2002 05:12:28 -0800
ISS
1 25544U 98067A 02302.38243948 .00032108 00000-0 43097-3 0 3138
2 25544 51.6354 99.1162 0014894 83.5300 359.9674 15.57510808224909
----
Via the sarex mailing list at AMSAT.ORG courtesy of AMSAT-NA.
To unsubscribe, send "unsubscribe sarex" to Majordomo@amsat.org
AMSAT Home